| time (UTC) | temp F | wind direction | speed knots | gust knots | rain 1hr in | rain 24hr in | rain mn in | humidity % | barometer mb |
| 20260901103543 | 57 | 46 | 0.0 | 0.9 | 0.00 | 0.00 | 0.00 | 82 | 998.3 |
| 20260901103022 | 57 | 46 | 0.0 | 3.5 | 0.00 | 0.00 | 0.00 | 83 | 998.3 |
| 20260901102517 | 57 | 46 | 0.0 | 1.7 | 0.00 | 0.00 | 0.00 | 82 | 998.2 |
| 20260901102029 | 57 | 42 | 0.0 | 1.7 | 0.00 | 0.00 | 0.00 | 82 | 998.2 |
| 20260901101559 | 57 | 42 | 0.9 | 2.6 | 0.00 | 0.00 | 0.00 | 82 | 998.2 |
| 20260901101003 | 58 | 44 | 0.9 | 2.6 | 0.00 | 0.00 | 0.00 | 82 | 998.3 |
| 20260901100509 | 58 | 32 | 0.9 | 2.6 | 0.00 | 0.00 | 0.00 | 82 | 998.2 |
| 20260901100042 | 58 | 42 | 0.9 | 2.6 | 0.00 | 0.00 | 0.00 | 82 | 998.2 |
| 20260901095549 | 58 | 326 | 0.9 | 4.3 | 0.00 | 0.00 | 0.00 | 82 | 998.3 |
| 20260901095057 | 58 | 240 | 0.0 | 6.1 | 0.00 | 0.00 | 0.00 | 81 | 998.3 |
| 20260901094539 | 58 | 163 | 1.7 | 6.1 | 0.00 | 0.00 | 0.00 | 81 | 998.3 |
| 20260901094043 | 58 | 221 | 0.0 | 1.7 | 0.00 | 0.00 | 0.00 | 80 | 998.4 |
| 20260901093551 | 58 | 220 | 0.0 | 1.7 | 0.00 | 0.00 | 0.00 | 81 | 998.4 |
| 20260901093028 | 58 | 229 | 0.0 | 1.7 | 0.00 | 0.00 | 0.00 | 80 | 998.3 |
| 20260901092533 | 58 | 229 | 0.0 | 1.7 | 0.00 | 0.00 | 0.00 | 80 | 998.2 |
| 20260901092042 | 59 | 213 | 0.0 | 0.0 | 0.00 | 0.00 | 0.00 | 80 | 998.0 |
| 20260901091506 | 59 | 213 | 0.0 | 1.7 | 0.00 | 0.00 | 0.00 | 80 | 997.8 |
| 20260901091007 | 59 | 213 | 0.0 | 3.5 | 0.00 | 0.00 | 0.00 | 80 | 997.8 |
| 20260901090513 | 59 | 213 | 0.9 | 3.5 | 0.00 | 0.00 | 0.00 | 80 | 997.6 |
| 20260901090050 | 59 | 235 | 0.9 | 4.3 | 0.00 | 0.00 | 0.00 | 80 | 997.6 |
| 20260901085549 | 59 | 186 | 0.0 | 4.3 | 0.00 | 0.00 | 0.00 | 80 | 997.7 |
| 20260901085057 | 59 | 240 | 0.9 | 3.5 | 0.00 | 0.00 | 0.00 | 79 | 997.7 |
| 20260901084533 | 59 | 294 | 0.9 | 3.5 | 0.00 | 0.00 | 0.00 | 79 | 997.8 |
| 20260901084038 | 59 | 306 | 0.9 | 3.5 | 0.00 | 0.00 | 0.00 | 79 | 997.9 |
| 20260901083540 | 59 | 318 | 0.9 | 3.5 | 0.00 | 0.00 | 0.00 | 79 | 997.8 |
| 20260901083006 | 60 | 317 | 0.9 | 3.5 | 0.00 | 0.00 | 0.00 | 79 | 997.7 |
| 20260901082511 | 60 | 163 | 0.0 | 4.3 | 0.00 | 0.00 | 0.00 | 79 | 997.7 |
| 20260901082016 | 60 | 163 | 1.7 | 4.3 | 0.00 | 0.00 | 0.00 | 79 | 997.7 |
| 20260901081551 | 60 | 202 | 0.0 | 4.3 | 0.00 | 0.00 | 0.00 | 78 | 997.7 |
| 20260901081102 | 60 | 200 | 0.9 | 4.3 | 0.00 | 0.00 | 0.00 | 78 | 997.8 |
| 20260901080559 | 60 | 75 | 0.0 | 2.6 | 0.00 | 0.00 | 0.00 | 78 | 997.8 |
| 20260901080035 | 60 | 60 | 0.9 | 2.6 | 0.00 | 0.00 | 0.00 | 78 | 997.7 |
| 20260901075539 | 61 | 90 | 0.9 | 3.5 | 0.00 | 0.00 | 0.00 | 77 | 997.6 |
| 20260901075045 | 61 | 90 | 0.9 | 4.3 | 0.00 | 0.00 | 0.00 | 77 | 997.5 |
| 20260901074503 | 61 | 76 | 1.7 | 4.3 | 0.00 | 0.00 | 0.00 | 77 | 997.4 |
| 20260901074009 | 61 | 142 | 0.0 | 4.3 | 0.00 | 0.00 | 0.00 | 76 | 997.4 |
| 20260901073515 | 62 | 198 | 0.0 | 2.6 | 0.00 | 0.00 | 0.00 | 75 | 997.3 |
| 20260901073043 | 62 | 171 | 0.9 | 2.6 | 0.00 | 0.00 | 0.00 | 75 | 997.4 |
| 20260901072549 | 62 | 194 | 0.0 | 2.6 | 0.00 | 0.00 | 0.00 | 75 | 997.3 |
| 20260901072055 | 62 | 194 | 0.9 | 2.6 | 0.00 | 0.00 | 0.00 | 74 | 997.2 |
| 20260901071526 | 63 | 219 | 0.0 | 0.0 | 0.00 | 0.00 | 0.00 | 74 | 997.2 |
| 20260901071030 | 63 | 218 | 0.0 | 0.0 | 0.00 | 0.00 | 0.00 | 74 | 997.1 |
| 20260901070536 | 63 | 218 | 0.0 | 0.0 | 0.00 | 0.00 | 0.00 | 74 | 997.0 |
| 20260901070009 | 63 | 218 | 0.0 | 0.0 | 0.00 | 0.00 | 0.00 | 74 | 996.9 |
| 20260901065513 | 63 | 218 | 0.0 | 0.0 | 0.00 | 0.00 | 0.00 | 73 | 996.8 |
| 20260901065020 | 64 | 222 | 0.0 | 0.0 | 0.00 | 0.00 | 0.00 | 73 | 996.8 |
| 20260901064548 | 64 | 222 | 0.0 | 0.0 | 0.00 | 0.00 | 0.00 | 73 | 996.7 |
| 20260901064052 | 64 | 236 | 0.0 | 0.0 | 0.00 | 0.00 | 0.00 | 72 | 996.8 |
| 20260901063555 | 64 | 236 | 0.0 | 0.0 | 0.00 | 0.00 | 0.00 | 72 | 996.8 |
| 20260901063009 | 65 | 236 | 0.0 | 0.0 | 0.00 | 0.00 | 0.00 | 72 | 996.6 |
| 20260901062524 | 65 | 236 | 0.0 | 0.9 | 0.00 | 0.00 | 0.00 | 71 | 996.6 |
| 20260901062027 | 65 | 236 | 0.0 | 1.7 | 0.00 | 0.00 | 0.00 | 71 | 996.6 |
| 20260901061600 | 65 | 236 | 0.0 | 1.7 | 0.00 | 0.00 | 0.00 | 71 | 996.6 |
| 20260901061105 | 65 | 236 | 0.9 | 2.6 | 0.00 | 0.00 | 0.00 | 70 | 996.5 |
| 20260901060602 | 66 | 236 | 0.9 | 2.6 | 0.00 | 0.00 | 0.00 | 70 | 996.4 |
| 20260901060033 | 66 | 236 | 0.0 | 0.0 | 0.00 | 0.00 | 0.00 | 69 | 996.4 |
| 20260901055541 | 66 | 236 | 0.0 | 0.0 | 0.00 | 0.00 | 0.00 | 69 | 996.3 |
| 20260901055047 | 66 | 236 | 0.0 | 0.0 | 0.00 | 0.00 | 0.00 | 69 | 996.3 |
| 20260901054521 | 67 | 236 | 0.0 | 0.0 | 0.00 | 0.00 | 0.00 | 69 | 996.1 |
| 20260901054028 | 67 | 236 | 0.0 | 0.0 | 0.00 | 0.00 | 0.00 | 68 | 996.1 |
| 20260901053538 | 67 | 236 | 0.0 | 0.0 | 0.00 | 0.00 | 0.00 | 67 | 996.0 |
| 20260901053004 | 67 | 236 | 0.0 | 0.0 | 0.00 | 0.00 | 0.00 | 67 | 996.1 |
| 20260901052517 | 68 | 236 | 0.0 | 0.0 | 0.00 | 0.00 | 0.00 | 67 | 996.0 |
| 20260901052030 | 68 | 236 | 0.0 | 0.0 | 0.00 | 0.00 | 0.00 | 67 | 996.0 |
| 20260901051553 | 68 | 236 | 0.0 | 0.0 | 0.00 | 0.00 | 0.00 | 66 | 995.9 |
| 20260901051101 | 68 | 236 | 0.0 | 0.0 | 0.00 | 0.00 | 0.00 | 66 | 995.9 |
| 20260901050519 | 68 | 236 | 0.0 | 0.0 | 0.00 | 0.00 | 0.00 | 66 | 995.9 |
| 20260901050051 | 69 | 236 | 0.0 | 0.0 | 0.00 | 0.00 | 0.00 | 65 | 995.9 |
| 20260901045549 | 69 | 236 | 0.0 | 0.0 | 0.00 | 0.00 | 0.00 | 64 | 995.9 |
| 20260901045058 | 69 | 236 | 0.0 | 0.0 | 0.00 | 0.00 | 0.00 | 64 | 995.9 |
| 20260901044531 | 69 | 236 | 0.0 | 0.0 | 0.00 | 0.00 | 0.00 | 63 | 995.9 |
| 20260901044027 | 70 | 236 | 0.0 | 2.6 | 0.00 | 0.00 | 0.00 | 63 | 995.8 |
| 20260901043507 | 70 | 236 | 0.9 | 2.6 | 0.00 | 0.00 | 0.00 | 63 | 995.8 |
| 20260901043105 | 70 | 236 | 0.9 | 1.7 | 0.00 | 0.00 | 0.00 | 62 | 995.8 |
| 20260901042553 | 70 | 236 | 0.0 | 0.0 | 0.00 | 0.00 | 0.00 | 62 | 995.8 |
| 20260901042055 | 71 | 236 | 0.0 | 0.0 | 0.00 | 0.00 | 0.00 | 61 | 995.6 |
| 20260901041529 | 71 | 236 | 0.0 | 2.6 | 0.00 | 0.00 | 0.00 | 61 | 995.6 |
| 20260901041035 | 71 | 236 | 0.0 | 3.5 | 0.00 | 0.00 | 0.00 | 60 | 995.5 |
| 20260901040543 | 71 | 236 | 0.0 | 3.5 | 0.00 | 0.00 | 0.00 | 59 | 995.5 |
| 20260901040021 | 71 | 226 | 0.0 | 2.6 | 0.00 | 0.00 | 0.00 | 58 | 995.4 |
| 20260901035527 | 72 | 207 | 0.9 | 2.6 | 0.00 | 0.00 | 0.00 | 58 | 995.4 |
| 20260901035034 | 72 | 209 | 0.9 | 2.6 | 0.00 | 0.00 | 0.00 | 58 | 995.3 |
| 20260901034501 | 72 | 244 | 1.7 | 3.5 | 0.00 | 0.00 | 0.00 | 57 | 995.3 |
| 20260901034017 | 72 | 244 | 0.9 | 3.5 | 0.00 | 0.00 | 0.00 | 56 | 995.2 |
| 20260901033525 | 73 | 209 | 1.7 | 3.5 | 0.00 | 0.00 | 0.00 | 56 | 995.1 |
| 20260901033112 | 73 | 5 | 0.0 | 5.2 | 0.00 | 0.00 | 0.00 | 55 | 995.0 |
| 20260901032506 | 73 | 314 | 1.7 | 5.2 | 0.00 | 0.00 | 0.00 | 54 | 994.9 |
| 20260901032010 | 74 | 291 | 1.7 | 4.3 | 0.00 | 0.00 | 0.00 | 54 | 994.8 |
| 20260901031607 | 74 | 302 | 0.9 | 2.6 | 0.00 | 0.00 | 0.00 | 54 | 994.6 |
| 20260901031059 | 74 | 282 | 0.0 | 1.7 | 0.00 | 0.00 | 0.00 | 53 | 994.4 |
| 20260901030505 | 74 | 194 | 0.0 | 0.0 | 0.00 | 0.00 | 0.00 | 52 | 994.2 |
| 20260901030045 | 75 | 194 | 0.0 | 0.9 | 0.00 | 0.00 | 0.00 | 52 | 994.2 |
| 20260901025547 | 75 | 194 | 0.0 | 2.6 | 0.00 | 0.00 | 0.00 | 51 | 994.3 |
| 20260901025053 | 75 | 194 | 0.9 | 2.6 | 0.00 | 0.00 | 0.00 | 51 | 994.3 |
| 20260901024508 | 76 | 206 | 0.9 | 2.6 | 0.00 | 0.00 | 0.00 | 50 | 994.3 |
| 20260901024015 | 76 | 206 | 0.9 | 2.6 | 0.00 | 0.00 | 0.00 | 50 | 994.3 |
| 20260901023529 | 76 | 206 | 0.9 | 2.6 | 0.00 | 0.00 | 0.00 | 49 | 994.4 |
| 20260901023108 | 76 | 206 | 0.0 | 2.6 | 0.00 | 0.00 | 0.00 | 49 | 994.4 |
| 20260901022505 | 76 | 205 | 0.9 | 2.6 | 0.00 | 0.00 | 0.00 | 49 | 994.4 |
| 20260901022010 | 77 | 205 | 0.9 | 2.6 | 0.00 | 0.00 | 0.00 | 49 | 994.4 |
| 20260901021547 | 77 | 205 | 0.9 | 2.6 | 0.00 | 0.00 | 0.00 | 48 | 994.4 |
| 20260901021056 | 77 | 189 | 0.0 | 2.6 | 0.00 | 0.00 | 0.00 | 48 | 994.4 |
| 20260901020603 | 77 | 189 | 0.9 | 1.7 | 0.00 | 0.00 | 0.00 | 48 | 994.5 |
| 20260901020038 | 78 | 190 | 0.9 | 2.6 | 0.00 | 0.00 | 0.00 | 48 | 994.6 |
| 20260901015543 | 78 | 190 | 0.9 | 2.6 | 0.00 | 0.00 | 0.00 | 47 | 994.6 |
| 20260901015048 | 78 | 184 | 0.9 | 2.6 | 0.00 | 0.00 | 0.00 | 47 | 994.5 |
| 20260901014523 | 79 | 184 | 0.9 | 2.6 | 0.00 | 0.00 | 0.00 | 46 | 994.5 |
| 20260901014031 | 79 | 196 | 0.9 | 2.6 | 0.00 | 0.00 | 0.00 | 47 | 994.5 |
| 20260901013537 | 79 | 179 | 0.9 | 2.6 | 0.00 | 0.00 | 0.00 | 47 | 994.5 |
| 20260901013007 | 80 | 196 | 0.0 | 3.5 | 0.00 | 0.00 | 0.00 | 47 | 994.5 |
| 20260901012519 | 80 | 181 | 0.0 | 3.5 | 0.00 | 0.00 | 0.00 | 45 | 994.5 |
| 20260901012024 | 80 | 162 | 0.0 | 3.5 | 0.00 | 0.00 | 0.00 | 45 | 994.5 |
| 20260901011555 | 80 | 186 | 0.0 | 2.6 | 0.00 | 0.00 | 0.00 | 45 | 994.5 |
| 20260901011101 | 80 | 195 | 0.0 | 1.7 | 0.00 | 0.00 | 0.00 | 45 | 994.6 |
| 20260901010505 | 80 | 195 | 0.0 | 3.5 | 0.00 | 0.00 | 0.00 | 47 | 994.5 |
| 20260901010031 | 80 | 195 | 0.9 | 3.5 | 0.00 | 0.00 | 0.00 | 45 | 994.6 |
| 20260901005534 | 80 | 188 | 0.0 | 2.6 | 0.00 | 0.00 | 0.00 | 45 | 994.6 |
| 20260901005043 | 80 | 186 | 0.0 | 2.6 | 0.00 | 0.00 | 0.00 | 46 | 994.6 |
| 20260901004509 | 80 | 181 | 0.0 | 4.3 | 0.00 | 0.00 | 0.00 | 45 | 994.6 |
| 20260901004022 | 81 | 181 | 0.0 | 4.3 | 0.00 | 0.00 | 0.00 | 45 | 994.6 |
| 20260901003533 | 81 | 181 | 0.0 | 4.3 | 0.00 | 0.00 | 0.00 | 43 | 994.7 |
| 20260901003002 | 82 | 197 | 1.7 | 4.3 | 0.00 | 0.00 | 0.00 | 43 | 994.6 |
| 20260901002509 | 82 | 187 | 0.0 | 3.5 | 0.00 | 0.00 | 0.00 | 43 | 994.7 |
| 20260901002015 | 83 | 188 | 0.0 | 3.5 | 0.00 | 0.00 | 0.00 | 43 | 994.7 |
| 20260901001553 | 83 | 360 | 1.7 | 3.5 | 0.00 | 0.00 | 0.00 | 39 | 994.7 |
| 20260901001046 | 83 | 355 | 1.7 | 3.5 | 0.00 | 0.00 | 0.00 | 39 | 994.7 |
| 20260901000552 | 83 | 65 | 0.9 | 3.5 | 0.00 | 0.00 | 0.00 | 40 | 994.8 |
| 20260901000032 | 83 | 150 | 1.7 | 3.5 | 0.00 | 0.00 | 0.00 | 40 | 994.7 |
| 20260831235537 | 83 | 19 | 0.0 | 3.5 | 0.00 | 0.00 | 0.00 | 42 | 994.7 |
| 20260831235043 | 83 | 19 | 0.9 | 3.5 | 0.00 | 0.00 | 0.00 | 41 | 994.8 |
| 20260831234520 | 83 | 360 | 1.7 | 2.6 | 0.00 | 0.00 | 0.00 | 41 | 994.7 |
| 20260831234028 | 84 | 117 | 0.9 | 3.5 | 0.00 | 0.00 | 0.00 | 40 | 994.8 |
| 20260831233531 | 83 | 176 | 0.9 | 3.5 | 0.00 | 0.00 | 0.00 | 40 | 994.7 |
| 20260831233058 | 83 | 304 | 0.0 | 3.5 | 0.00 | 0.00 | 0.00 | 40 | 994.8 |
| 20260831232514 | 83 | 128 | 0.9 | 3.5 | 0.00 | 0.00 | 0.00 | 40 | 994.7 |
| 20260831232021 | 83 | 67 | 0.0 | 3.5 | 0.00 | 0.00 | 0.00 | 40 | 994.8 |
| 20260831231554 | 83 | 68 | 1.7 | 3.5 | 0.00 | 0.00 | 0.00 | 40 | 994.8 |
| 20260831231057 | 83 | 40 | 0.9 | 5.2 | 0.00 | 0.00 | 0.00 | 40 | 994.8 |
| 20260831230603 | 84 | 360 | 1.7 | 5.2 | 0.00 | 0.00 | 0.00 | 39 | 994.9 |
| 20260831230040 | 84 | 92 | 2.6 | 5.2 | 0.00 | 0.00 | 0.00 | 39 | 994.9 |
| 20260831225544 | 84 | 49 | 2.6 | 4.3 | 0.00 | 0.00 | 0.00 | 40 | 994.9 |
| 20260831225056 | 83 | 305 | 0.9 | 7.0 | 0.00 | 0.00 | 0.00 | 40 | 995.0 |
| 20260831224522 | 83 | 92 | 1.7 | 7.0 | 0.00 | 0.00 | 0.00 | 39 | 995.0 |
| 20260831224017 | 83 | 355 | 1.7 | 4.3 | 0.00 | 0.00 | 0.00 | 40 | 995.1 |
| 20260831223523 | 84 | 355 | 2.6 | 4.3 | 0.00 | 0.00 | 0.00 | 39 | 995.2 |
| 20260831223057 | 83 | 59 | 0.9 | 5.2 | 0.00 | 0.00 | 0.00 | 41 | 995.2 |
| 20260831222603 | 83 | 55 | 1.7 | 5.2 | 0.00 | 0.00 | 0.00 | 41 | 995.2 |
| 20260831222023 | 83 | 318 | 2.6 | 5.2 | 0.00 | 0.00 | 0.00 | 40 | 995.3 |
| 20260831221556 | 83 | 273 | 1.7 | 4.3 | 0.00 | 0.00 | 0.00 | 40 | 995.4 |
| 20260831221052 | 83 | 53 | 1.7 | 5.2 | 0.00 | 0.00 | 0.00 | 40 | 995.4 |
| 20260831220601 | 83 | 333 | 1.7 | 5.2 | 0.00 | 0.00 | 0.00 | 41 | 995.5 |
| 20260831220034 | 82 | 11 | 1.7 | 4.3 | 0.00 | 0.00 | 0.00 | 40 | 995.6 |
| 20260831215542 | 82 | 329 | 1.7 | 3.5 | 0.00 | 0.00 | 0.00 | 42 | 995.6 |
| 20260831215049 | 82 | 350 | 0.9 | 3.5 | 0.00 | 0.00 | 0.00 | 40 | 995.7 |
| 20260831214504 | 82 | 28 | 0.9 | 5.2 | 0.00 | 0.00 | 0.00 | 40 | 995.7 |
| 20260831214011 | 82 | 113 | 1.7 | 7.0 | 0.00 | 0.00 | 0.00 | 39 | 995.7 |
| 20260831213518 | 82 | 9 | 2.6 | 4.3 | 0.00 | 0.00 | 0.00 | 41 | 995.7 |
| 20260831213055 | 81 | 148 | 0.9 | 4.3 | 0.00 | 0.00 | 0.00 | 42 | 995.8 |
| 20260831212558 | 81 | 187 | 1.7 | 3.5 | 0.00 | 0.00 | 0.00 | 42 | 995.9 |
| 20260831212004 | 81 | 90 | 1.7 | 3.5 | 0.00 | 0.00 | 0.00 | 42 | 995.9 |
| 20260831211541 | 80 | 306 | 1.7 | 4.3 | 0.00 | 0.00 | 0.00 | 42 | 995.9 |
| 20260831211047 | 80 | 333 | 2.6 | 4.3 | 0.00 | 0.00 | 0.00 | 43 | 995.9 |
| 20260831210553 | 80 | 35 | 0.9 | 3.5 | 0.00 | 0.00 | 0.00 | 44 | 996.1 |
| 20260831210026 | 79 | 319 | 1.7 | 3.5 | 0.00 | 0.00 | 0.00 | 44 | 996.2 |
| 20260831205532 | 79 | 150 | 1.7 | 4.3 | 0.00 | 0.00 | 0.00 | 44 | 996.4 |
| 20260831205038 | 79 | 78 | 1.7 | 2.6 | 0.00 | 0.00 | 0.00 | 45 | 996.4 |
| 20260831204505 | 78 | 290 | 1.7 | 3.5 | 0.00 | 0.00 | 0.00 | 44 | 996.4 |
| 20260831204010 | 78 | 25 | 0.9 | 4.3 | 0.00 | 0.00 | 0.00 | 46 | 996.5 |
| 20260831203524 | 78 | 18 | 1.7 | 4.3 | 0.00 | 0.00 | 0.00 | 45 | 996.7 |
| 20260831203101 | 78 | 50 | 0.9 | 3.5 | 0.00 | 0.00 | 0.00 | 47 | 996.7 |
| 20260831202556 | 78 | 28 | 0.9 | 3.5 | 0.00 | 0.00 | 0.00 | 45 | 996.8 |
| 20260831202102 | 77 | 32 | 0.0 | 4.3 | 0.00 | 0.00 | 0.00 | 45 | 996.9 |
| 20260831201537 | 77 | 53 | 0.9 | 4.3 | 0.00 | 0.00 | 0.00 | 45 | 997.0 |
| 20260831201042 | 76 | 311 | 1.7 | 7.0 | 0.00 | 0.00 | 0.00 | 47 | 996.9 |
| 20260831200550 | 76 | 305 | 3.5 | 7.0 | 0.00 | 0.00 | 0.00 | 48 | 997.0 |
| 20260831200030 | 76 | 259 | 0.9 | 4.3 | 0.00 | 0.00 | 0.00 | 48 | 997.2 |
| 20260831195530 | 76 | 55 | 0.9 | 4.3 | 0.00 | 0.00 | 0.00 | 48 | 997.3 |
| 20260831195038 | 75 | 57 | 0.0 | 3.5 | 0.00 | 0.00 | 0.00 | 49 | 997.2 |
| 20260831194506 | 75 | 355 | 0.0 | 5.2 | 0.00 | 0.00 | 0.00 | 48 | 997.3 |
| 20260831194012 | 76 | 183 | 1.7 | 5.2 | 0.00 | 0.00 | 0.00 | 50 | 997.4 |
| 20260831193518 | 76 | 86 | 1.7 | 4.3 | 0.00 | 0.00 | 0.00 | 49 | 997.3 |
| 20260831193054 | 75 | 132 | 0.9 | 3.5 | 0.00 | 0.00 | 0.00 | 51 | 997.3 |
| 20260831192600 | 74 | 231 | 1.7 | 4.3 | 0.00 | 0.00 | 0.00 | 51 | 997.3 |
| 20260831192005 | 74 | 325 | 1.7 | 4.3 | 0.00 | 0.00 | 0.00 | 51 | 997.4 |
| 20260831191541 | 73 | 66 | 0.9 | 2.6 | 0.00 | 0.00 | 0.00 | 52 | 997.6 |
| 20260831191032 | 73 | 71 | 0.9 | 2.6 | 0.00 | 0.00 | 0.00 | 53 | 997.7 |
| 20260831190541 | 73 | 80 | 0.9 | 3.5 | 0.00 | 0.00 | 0.00 | 52 | 997.7 |
| 20260831190109 | 73 | 98 | 1.7 | 3.5 | 0.00 | 0.00 | 0.00 | 54 | 998.0 |
| 20260831185519 | 72 | 36 | 1.7 | 4.3 | 0.00 | 0.00 | 0.00 | 53 | 997.8 |
| 20260831185027 | 73 | 54 | 2.6 | 4.3 | 0.00 | 0.00 | 0.00 | 53 | 998.0 |
| 20260831184558 | 72 | 295 | 2.6 | 4.3 | 0.00 | 0.00 | 0.00 | 53 | 998.0 |
| 20260831184102 | 72 | 79 | 0.9 | 3.5 | 0.00 | 0.00 | 0.00 | 55 | 998.0 |
| 20260831183516 | 71 | 33 | 1.7 | 4.3 | 0.00 | 0.00 | 0.00 | 55 | 998.0 |
| 20260831183030 | 71 | 11 | 2.6 | 4.3 | 0.00 | 0.00 | 0.00 | 55 | 998.0 |
| 20260831182536 | 71 | 325 | 1.7 | 4.3 | 0.00 | 0.00 | 0.00 | 55 | 998.1 |
| 20260831182042 | 71 | 5 | 0.9 | 4.3 | 0.00 | 0.00 | 0.00 | 57 | 998.1 |
| 20260831181508 | 72 | 32 | 1.7 | 4.3 | 0.00 | 0.00 | 0.00 | 55 | 998.2 |
| 20260831181022 | 71 | 19 | 1.7 | 4.3 | 0.00 | 0.00 | 0.00 | 57 | 998.2 |
| 20260831180527 | 71 | 102 | 0.9 | 2.6 | 0.00 | 0.00 | 0.00 | 59 | 998.4 |
| 20260831180042 | 70 | 151 | 0.0 | 2.6 | 0.00 | 0.00 | 0.00 | 60 | 998.5 |
| 20260831175550 | 70 | 149 | 0.9 | 5.2 | 0.00 | 0.00 | 0.00 | 60 | 998.5 |
| 20260831175056 | 69 | 149 | 1.7 | 5.2 | 0.00 | 0.00 | 0.00 | 60 | 998.6 |
| 20260831174532 | 69 | 143 | 1.7 | 4.3 | 0.00 | 0.00 | 0.00 | 60 | 998.6 |
| 20260831174041 | 69 | 46 | 0.9 | 2.6 | 0.00 | 0.00 | 0.00 | 60 | 998.6 |
| 20260831173542 | 68 | 49 | 0.9 | 5.2 | 0.00 | 0.00 | 0.00 | 63 | 998.6 |
| 20260831173022 | 68 | 355 | 1.7 | 5.2 | 0.00 | 0.00 | 0.00 | 62 | 998.7 |
| 20260831172528 | 68 | 59 | 1.7 | 4.3 | 0.00 | 0.00 | 0.00 | 62 | 998.7 |
| 20260831172032 | 68 | 70 | 0.9 | 2.6 | 0.00 | 0.00 | 0.00 | 62 | 998.8 |
| 20260831171507 | 67 | 51 | 0.9 | 3.5 | 0.00 | 0.00 | 0.00 | 64 | 998.9 |
| 20260831171016 | 67 | 48 | 0.9 | 3.5 | 0.00 | 0.00 | 0.00 | 66 | 998.9 |
| 20260831170522 | 66 | 321 | 0.9 | 4.3 | 0.00 | 0.00 | 0.00 | 65 | 998.8 |
| 20260831170050 | 66 | 34 | 2.6 | 4.3 | 0.00 | 0.00 | 0.00 | 67 | 999.0 |
| 20260831165556 | 66 | 338 | 0.0 | 2.6 | 0.00 | 0.00 | 0.00 | 65 | 999.1 |
| 20260831165001 | 66 | 25 | 0.0 | 2.6 | 0.00 | 0.00 | 0.00 | 65 | 999.2 |
| 20260831164546 | 65 | 22 | 0.0 | 2.6 | 0.00 | 0.00 | 0.00 | 67 | 999.1 |
| 20260831164048 | 65 | 298 | 0.9 | 2.6 | 0.00 | 0.00 | 0.00 | 67 | 999.2 |
| 20260831163550 | 65 | 336 | 0.9 | 4.3 | 0.00 | 0.00 | 0.00 | 68 | 999.2 |
| 20260831163024 | 64 | 30 | 0.9 | 4.3 | 0.00 | 0.00 | 0.00 | 68 | 999.3 |
| 20260831162533 | 64 | 40 | 0.9 | 2.6 | 0.00 | 0.00 | 0.00 | 69 | 999.3 |
| 20260831162037 | 63 | 40 | 0.0 | 3.5 | 0.00 | 0.00 | 0.00 | 70 | 999.3 |
| 20260831161602 | 63 | 40 | 1.7 | 3.5 | 0.00 | 0.00 | 0.00 | 70 | 999.4 |
| 20260831161006 | 63 | 49 | 1.7 | 3.5 | 0.00 | 0.00 | 0.00 | 70 | 999.4 |
| 20260831160511 | 63 | 17 | 0.9 | 2.6 | 0.00 | 0.00 | 0.00 | 72 | 999.4 |
| 20260831160043 | 62 | 46 | 0.9 | 3.5 | 0.00 | 0.00 | 0.00 | 72 | 999.4 |
| 20260831155548 | 62 | 51 | 1.7 | 4.3 | 0.00 | 0.00 | 0.00 | 72 | 999.4 |
| 20260831155057 | 62 | 47 | 1.7 | 4.3 | 0.00 | 0.00 | 0.00 | 72 | 999.5 |
| 20260831154524 | 61 | 74 | 2.6 | 4.3 | 0.00 | 0.00 | 0.00 | 73 | 999.5 |
| 20260831154032 | 61 | 51 | 1.7 | 3.5 | 0.00 | 0.00 | 0.00 | 74 | 999.5 |
| 20260831153536 | 60 | 25 | 1.7 | 3.5 | 0.00 | 0.00 | 0.00 | 75 | 999.6 |
| 20260831153050 | 60 | 53 | 1.7 | 3.5 | 0.00 | 0.00 | 0.00 | 77 | 999.6 |
| 20260831152546 | 59 | 34 | 0.9 | 2.6 | 0.00 | 0.00 | 0.00 | 79 | 999.7 |
| 20260831152053 | 58 | 28 | 0.0 | 3.5 | 0.00 | 0.00 | 0.00 | 80 | 999.7 |
| 20260831151502 | 57 | 20 | 1.7 | 3.5 | 0.00 | 0.00 | 0.00 | 81 | 999.8 |
| 20260831151003 | 57 | 49 | 0.9 | 2.6 | 0.00 | 0.00 | 0.00 | 83 | 999.7 |
| 20260831150508 | 56 | 323 | 0.9 | 2.6 | 0.00 | 0.00 | 0.00 | 84 | 999.7 |
| 20260831150044 | 56 | 43 | 0.9 | 2.6 | 0.00 | 0.00 | 0.00 | 84 | 999.7 |
| 20260831145551 | 55 | 212 | 0.0 | 2.6 | 0.00 | 0.00 | 0.00 | 85 | 999.8 |
| 20260831145051 | 55 | 213 | 0.0 | 0.0 | 0.00 | 0.00 | 0.00 | 85 | 999.7 |
| 20260831144530 | 54 | 213 | 0.0 | 0.0 | 0.00 | 0.00 | 0.00 | 85 | 999.7 |
| 20260831144035 | 54 | 213 | 0.0 | 0.0 | 0.00 | 0.00 | 0.00 | 84 | 999.8 |
| 20260831143536 | 54 | 213 | 0.0 | 0.0 | 0.00 | 0.00 | 0.00 | 84 | 999.7 |
| 20260831143056 | 54 | 213 | 0.0 | 0.0 | 0.00 | 0.00 | 0.00 | 84 | 999.7 |
| 20260831142558 | 54 | 213 | 0.0 | 0.9 | 0.00 | 0.00 | 0.00 | 84 | 999.7 |
| 20260831142103 | 54 | 213 | 0.0 | 1.7 | 0.00 | 0.00 | 0.00 | 83 | 999.6 |
| 20260831141537 | 54 | 213 | 0.9 | 1.7 | 0.00 | 0.00 | 0.00 | 83 | 999.6 |
| 20260831141043 | 54 | 213 | 0.9 | 1.7 | 0.00 | 0.00 | 0.00 | 83 | 999.7 |
| 20260831140552 | 54 | 213 | 0.9 | 1.7 | 0.00 | 0.00 | 0.00 | 83 | 999.8 |
| 20260831140019 | 54 | 213 | 0.9 | 1.7 | 0.00 | 0.00 | 0.00 | 83 | 999.7 |
| 20260831135526 | 54 | 213 | 0.9 | 1.7 | 0.00 | 0.00 | 0.00 | 83 | 999.7 |
| 20260831135032 | 54 | 213 | 0.9 | 1.7 | 0.00 | 0.00 | 0.00 | 83 | 999.7 |
| 20260831134558 | 54 | 213 | 1.7 | 1.7 | 0.00 | 0.00 | 0.00 | 83 | 999.6 |
| 20260831134005 | 54 | 213 | 0.9 | 1.7 | 0.00 | 0.00 | 0.00 | 83 | 999.6 |
| 20260831133511 | 54 | 213 | 0.9 | 1.7 | 0.00 | 0.00 | 0.00 | 83 | 999.8 |
| 20260831133048 | 54 | 213 | 0.0 | 1.7 | 0.00 | 0.00 | 0.00 | 82 | 999.8 |
| 20260831132554 | 54 | 213 | 0.9 | 1.7 | 0.00 | 0.00 | 0.00 | 82 | 999.7 |
| 20260831132100 | 54 | 213 | 0.9 | 2.6 | 0.00 | 0.00 | 0.00 | 82 | 999.9 |
| 20260831131538 | 54 | 213 | 0.9 | 2.6 | 0.00 | 0.00 | 0.00 | 82 | 999.9 |
| 20260831131039 | 54 | 213 | 0.9 | 1.7 | 0.00 | 0.00 | 0.00 | 82 | 999.9 |
| 20260831130550 | 54 | 213 | 0.9 | 1.7 | 0.00 | 0.00 | 0.00 | 82 | 999.8 |
| 20260831130024 | 55 | 213 | 0.9 | 1.7 | 0.00 | 0.00 | 0.00 | 82 | 999.9 |
| 20260831125511 | 55 | 213 | 0.9 | 2.6 | 0.00 | 0.00 | 0.00 | 82 | 999.9 |
| 20260831125021 | 55 | 213 | 1.7 | 2.6 | 0.00 | 0.00 | 0.00 | 82 | 1000.0 |
| 20260831124607 | 55 | 213 | 0.9 | 1.7 | 0.00 | 0.00 | 0.00 | 82 | 999.9 |
| 20260831124003 | 55 | 213 | 0.9 | 1.7 | 0.00 | 0.00 | 0.00 | 82 | 1000.0 |
| 20260831123505 | 55 | 213 | 0.9 | 1.7 | 0.00 | 0.00 | 0.00 | 82 | 1000.0 |
| 20260831123041 | 55 | 213 | 0.9 | 1.7 | 0.00 | 0.00 | 0.00 | 82 | 1000.0 |
| 20260831122550 | 55 | 213 | 0.9 | 2.6 | 0.00 | 0.00 | 0.00 | 82 | 1000.0 |
| 20260831122049 | 55 | 213 | 0.0 | 3.5 | 0.00 | 0.00 | 0.00 | 82 | 1000.0 |
| 20260831121518 | 55 | 296 | 0.0 | 0.0 | 0.00 | 0.00 | 0.00 | 82 | 1000.1 |
| 20260831121032 | 55 | 268 | 0.0 | 0.0 | 0.00 | 0.00 | 0.00 | 82 | 1000.1 |
| 20260831120540 | 55 | 268 | 0.0 | 0.0 | 0.00 | 0.00 | 0.00 | 82 | 1000.1 |
| 20260831120058 | 55 | 268 | 0.0 | 0.0 | 0.00 | 0.00 | 0.00 | 82 | 1000.2 |
| 20260831115502 | 55 | 268 | 0.0 | 0.0 | 0.00 | 0.00 | 0.00 | 82 | 1000.2 |
| 20260831115007 | 55 | 268 | 0.0 | 0.0 | 0.00 | 0.00 | 0.00 | 82 | 1000.3 |
| 20260831114518 | 55 | 268 | 0.0 | 0.0 | 0.00 | 0.00 | 0.00 | 81 | 1000.4 |
| 20260831114032 | 56 | 268 | 0.0 | 0.0 | 0.00 | 0.00 | 0.00 | 82 | 1000.3 |
| 20260831113537 | 56 | 268 | 0.0 | 0.0 | 0.00 | 0.00 | 0.00 | 82 | 1000.4 |
| 20260831113009 | 56 | 268 | 0.0 | 0.0 | 0.00 | 0.00 | 0.00 | 82 | 1000.4 |
| 20260831112523 | 56 | 268 | 0.0 | 0.0 | 0.00 | 0.00 | 0.00 | 82 | 1000.4 |
| 20260831112029 | 56 | 268 | 0.0 | 0.9 | 0.00 | 0.00 | 0.00 | 82 | 1000.4 |
| 20260831111616 | 56 | 268 | 0.0 | 1.7 | 0.00 | 0.00 | 0.00 | 82 | 1000.5 |
| 20260831111101 | 56 | 268 | 0.0 | 1.7 | 0.00 | 0.00 | 0.00 | 82 | 1000.4 |
| 20260831110505 | 56 | 268 | 0.9 | 2.6 | 0.00 | 0.00 | 0.00 | 81 | 1000.5 |
| 20260831110044 | 56 | 268 | 0.9 | 2.6 | 0.00 | 0.00 | 0.00 | 81 | 1000.6 |
| 20260831105549 | 56 | 268 | 0.9 | 2.6 | 0.00 | 0.00 | 0.00 | 81 | 1000.5 |
| 20260831105100 | 56 | 268 | 0.9 | 1.7 | 0.00 | 0.00 | 0.00 | 81 | 1000.6 |
| 20260831104547 | 56 | 268 | 0.0 | 2.6 | 0.00 | 0.00 | 0.00 | 81 | 1000.6 |
| 20260831104038 | 56 | 268 | 0.9 | 2.6 | 0.00 | 0.00 | 0.00 | 81 | 1000.5 |